sat.trackr.live / text

‹ back to catalog

STARLINK-36199

NORAD 67213 · 2025-304X

PAYLOAD ACTIVE UNKNOWN

§ Identity

Operator
Country
US
Launch date
2025-12-17
Launch site
AFWTR
Launch vehicle
Mass (kg)
RCS (m²)

Purposes: comms

External: N2YO · Heavens-Above · Gunter

§ Orbital elements

Epoch: 2026-09-19T19:00:39.481632Z

Period
96.11 min
Inclination
70.0016°
Eccentricity
0.0002971
Mean motion
14.98360925 rev/d
Perigee alt
569.9 km
Apogee alt
574.0 km
Semi-major
6,950.1 km
B*
8.3983e-4
RAAN
44.8761°
Arg perigee
270.7874°
Mean anomaly
89.2945°
Rev number
4,296

§ Raw data

STARLINK-361991 67213U 25304X   26262.79212363  .00009950  00000+0  83983-3 0  99902 67213  70.0016  44.8761 0002971 270.7874  89.2945 14.98360925 42964

JSON: /api/v1/satellites/67213 · /tle

For live sub-satellite position, see the globe view (requires WebGL).

§ Visibility from observer

Set your observer location to see the next 7 days of passes ≥ 10°. The values pass through the URL so the page stays shareable.

No JS? Fill the form by hand. The geolocation button needs JavaScript.